Voltar ao catálogo

MIDAS 5 DEB

AtivoPO
NORAD 274·DEBRIS·🇺🇸 United States

Lançado Apr 9, 1962 de Vandenberg Space Force Base

Loading…

Próximas Passagens (próximas 24 horas)

TLE

AtualizadoSource: Space-Track

Época: Sep 14, 2026, 14:39 UTC

1 00274U 62010D   26257.61050551 -.00000048  00000-0 -10901-1 0  9993
2 00274  86.6708 320.7270 0345368  60.4080 303.0773  9.39363623209185

Acompanhe MIDAS 5 DEB em tempo real com AllMySat

Download on the App Store